TimeMDT,TemperatureF,Dew PointF,Humidity,Sea Level PressureIn,VisibilityMPH,Wind Direction,Wind SpeedMPH,Gust SpeedMPH,PrecipitationIn,Events,Conditions,WindDirDegrees,DateUTC
12:53 AM,51.1,28.0,41,29.59,10.0,Calm,Calm,-,N/A,,Clear,0,2012-10-21 06:53:00
1:53 AM,48.9,30.0,48,29.60,10.0,West,5.8,-,N/A,,Clear,280,2012-10-21 07:53:00
2:53 AM,41.0,27.0,57,29.61,10.0,Calm,Calm,-,N/A,,Clear,0,2012-10-21 08:53:00
3:53 AM,39.9,27.0,60,29.62,10.0,NNE,3.5,-,N/A,,Clear,30,2012-10-21 09:53:00
4:53 AM,39.9,28.0,63,29.63,10.0,NW,5.8,-,N/A,,Clear,320,2012-10-21 10:53:00
5:53 AM,42.1,27.0,55,29.67,10.0,NW,10.4,-,N/A,,Clear,310,2012-10-21 11:53:00
6:53 AM,34.0,26.1,73,29.72,10.0,North,6.9,-,N/A,,Clear,10,2012-10-21 12:53:00
7:53 AM,46.0,27.0,47,29.73,10.0,North,12.7,-,N/A,,Clear,350,2012-10-21 13:53:00
8:53 AM,54.0,30.9,41,29.75,10.0,North,19.6,25.3,N/A,,Clear,360,2012-10-21 14:53:00
9:53 AM,59.0,35.1,41,29.75,10.0,North,18.4,28.8,N/A,,Clear,10,2012-10-21 15:53:00
10:53 AM,63.0,36.0,37,29.75,10.0,NNE,19.6,25.3,N/A,,Clear,30,2012-10-21 16:53:00
11:53 AM,66.0,37.0,34,29.76,10.0,NNE,16.1,-,N/A,,Clear,20,2012-10-21 17:53:00
12:53 PM,70.0,36.0,29,29.74,10.0,NNE,15.0,-,N/A,,Clear,20,2012-10-21 18:53:00
1:53 PM,72.0,37.0,28,29.72,10.0,NNE,15.0,23.0,N/A,,Clear,30,2012-10-21 19:53:00
2:53 PM,72.0,36.0,27,29.73,10.0,NE,18.4,23.0,N/A,,Clear,40,2012-10-21 20:53:00
3:53 PM,72.0,37.0,28,29.75,10.0,NE,17.3,23.0,N/A,,Clear,40,2012-10-21 21:53:00
4:53 PM,69.1,37.0,31,29.76,10.0,NE,12.7,-,N/A,,Clear,50,2012-10-21 22:53:00
5:53 PM,61.0,36.0,39,29.80,10.0,NE,6.9,-,N/A,,Clear,50,2012-10-21 23:53:00
6:53 PM,55.0,36.0,49,29.84,10.0,NE,8.1,-,N/A,,Clear,40,2012-10-22 00:53:00
7:53 PM,52.0,36.0,54,29.84,10.0,NE,6.9,-,N/A,,Clear,40,2012-10-22 01:53:00
8:53 PM,50.0,36.0,59,29.84,10.0,NE,9.2,-,N/A,,Clear,40,2012-10-22 02:53:00
9:53 PM,46.9,36.0,66,29.85,10.0,NNE,8.1,-,N/A,,Clear,30,2012-10-22 03:53:00
10:53 PM,45.0,35.1,68,29.86,10.0,North,5.8,-,N/A,,Clear,10,2012-10-22 04:53:00
11:53 PM,43.0,36.0,76,29.86,10.0,North,6.9,-,N/A,,Clear,350,2012-10-22 05:53:00